sat.trackr.live / text

‹ back to catalog

SNIPE 4

NORAD 56744 · 2023-072B

PAYLOAD ACTIVE UNKNOWN

§ Identity

Operator
Country
SKOR
Launch date
2023-05-25
Launch site
NSC
Launch vehicle
Mass (kg)
RCS (m²)

External: N2YO · Heavens-Above · Gunter

§ Orbital elements

Epoch: 2026-09-21T21:36:57.055104Z

Period
93.15 min
Inclination
97.5153°
Eccentricity
0.0004414
Mean motion
15.45886826 rev/d
Perigee alt
425.8 km
Apogee alt
431.8 km
Semi-major
6,806.9 km
B*
3.0982e-4
RAAN
114.1885°
Arg perigee
353.1968°
Mean anomaly
6.9220°
Rev number
18,503

§ Raw data

SNIPE 41 56744U 23072B   26264.90066036  .00014975  00000+0  30982-3 0  99902 56744  97.5153 114.1885 0004414 353.1968   6.9220 15.45886826185033

JSON: /api/v1/satellites/56744 · /tle

For live sub-satellite position, see the globe view (requires WebGL).

§ Visibility from observer

Set your observer location to see the next 7 days of passes ≥ 10°. The values pass through the URL so the page stays shareable.

No JS? Fill the form by hand. The geolocation button needs JavaScript.

§ Radio — SatNOGS DB

ModeDescriptionDownlinkUplink
FSK AX.100 Mode 5 Mode U - MSK4k8 437.800 MHz
FM S-band telemetry 2.251 GHz

2 transmitters · refreshed weekly from db.satnogs.org